RUSSARO Weather Reports


Display with metric or nautical units.
time (UTC)temp
F
wind
direction
speed
MPH
gust
MPH
rain 1hr
in
rain 24hr
in
rain mn
in
humidity
%
barometer
mb
20260508094732 46 232 14.0 17.0 0.00 0.00 0.00 63 1027.2
20260508092732 48 233 11.0 12.0 0.00 0.00 0.00 63 1027.1
20260508090732 46 230 10.0 11.0 0.00 0.00 0.00 66 1027.2
20260508084732 47 235 10.0 11.0 0.00 0.00 0.00 62 1027.2
20260508082731 46 241 10.0 11.0 0.00 0.00 0.00 69 1027.2
20260508080732 47 246 10.0 11.0 0.00 0.00 0.00 68 1027.2
20260508074732 47 209 7.0 10.0 0.00 0.00 0.00 53 1027.1
20260508072731 48 175 4.0 6.0 0.00 0.00 0.00 48 1026.7
20260508070732 49 132 4.0 6.0 0.00 0.00 0.00 44 1026.6
20260508064731 48 115 4.0 7.0 0.00 0.00 0.00 51 1026.5
20260508062731 48 44 7.0 11.0 0.00 0.00 0.00 53 1026.2
20260508054732 46 50 6.0 9.0 0.00 0.00 0.00 59 1025.8
20260508052732 44 27 7.0 9.0 0.00 0.00 0.00 60 1025.7
20260508050731 45 16 7.0 10.0 0.00 0.00 0.00 61 1025.5
20260508044732 43 8 8.0 11.0 0.00 0.00 0.00 65 1025.3
20260508042731 42 4 9.0 13.0 0.00 0.00 0.00 67 1025.1
20260508040731 42 4 8.0 11.0 0.00 0.00 0.00 66 1024.9
20260508034731 41 1 9.0 12.0 0.00 0.00 0.00 67 1024.7
20260508032731 40 357 11.0 14.0 0.00 0.00 0.00 66 1024.5
20260508030731 39 353 11.0 13.0 0.00 0.00 0.00 71 1024.4
20260508024730 39 1 10.0 12.0 0.00 0.00 0.00 72 1024.1
20260508022730 39 356 12.0 14.0 0.00 0.00 0.00 71 1023.8
20260508020731 39 360 12.0 15.0 0.00 0.00 0.00 72 1023.5
20260508014730 39 7 9.0 12.0 0.00 0.00 0.00 75 1023.3
20260508012730 39 351 11.0 13.0 0.00 0.00 0.00 75 1023.1
20260508010731 40 353 10.0 13.0 0.00 0.00 0.00 71 1022.4
20260508004731 40 346 12.0 15.0 0.00 0.00 0.00 72 1022.7
20260508002731 40 353 10.0 13.0 0.00 0.00 0.00 71 1022.4
20260508000731 40 358 9.0 12.0 0.00 0.00 0.00 70 1022.1
20260507234731 41 351 9.0 12.0 0.00 0.00 0.00 66 1022.0
20260507232730 42 342 12.0 15.0 0.00 0.00 0.00 64 1021.7
20260507230731 42 338 11.0 13.0 0.00 0.00 0.00 63 1021.5
20260507224729 42 343 11.0 14.0 0.00 0.00 0.00 60 1021.2
20260507222730 43 345 11.0 14.0 0.00 0.00 0.00 60 1021.1
20260507220730 44 344 11.0 15.0 0.00 0.00 0.00 56 1020.9
20260507214730 44 342 12.0 16.0 0.00 0.00 0.00 53 1020.6
20260507212729 45 336 12.0 16.0 0.00 0.00 0.00 51 1020.3
20260507204730 45 334 13.0 16.0 0.00 0.00 0.00 51 1019.7
20260507202729 45 336 13.0 16.0 0.00 0.00 0.00 55 1019.5
20260507200731 46 328 14.0 18.0 0.00 0.00 0.00 49 1019.3
20260507194729 47 321 15.0 19.0 0.00 0.00 0.00 46 1019.0
20260507192729 47 318 17.0 19.0 0.00 0.00 0.00 50 1018.6
20260507190729 47 317 15.0 18.0 0.00 0.00 0.00 51 1018.3
20260507184729 47 314 16.0 20.0 0.00 0.00 0.00 53 1018.1
20260507182728 47 311 17.0 20.0 0.00 0.00 0.00 51 1017.9
20260507180728 47 308 20.0 24.0 0.00 0.00 0.00 52 1017.7
20260507174729 48 299 22.0 25.0 0.00 0.00 0.00 44 1017.6
20260507172728 49 299 23.0 26.0 0.00 0.00 0.00 43 1017.5
20260507170728 49 303 20.0 25.0 0.00 0.00 0.00 45 1017.4
20260507164729 48 280 23.0 26.0 0.00 0.00 0.00 57 1017.4
20260507162729 47 261 20.0 21.0 0.00 0.00 0.00 65 1017.2
20260507160729 48 253 19.0 20.0 0.00 0.00 0.00 63 1017.2
20260507154728 49 256 19.0 20.0 0.00 0.00 0.00 59 1017.0
20260507152728 49 265 21.0 21.0 0.00 0.00 0.00 59 1017.1
20260507150730 51 267 21.0 22.0 0.00 0.00 0.00 46 1017.1
20260507144729 52 269 19.0 20.0 0.00 0.00 0.00 42 1017.0
20260507142729 52 270 17.0 19.0 0.00 0.00 0.00 47 1016.9
20260507140728 51 273 18.0 19.0 0.00 0.00 0.00 52 1016.9
20260507134729 50 273 16.0 18.0 0.00 0.00 0.00 56 1016.9
20260507132728 50 270 15.0 17.0 0.00 0.00 0.00 52 1016.8
20260507130728 51 266 15.0 16.0 0.00 0.00 0.00 48 1016.7
20260507124727 49 263 14.0 16.0 0.00 0.00 0.00 48 1016.7
20260507122727 50 259 12.0 18.0 0.00 0.00 0.00 54 1016.6
20260507120728 49 233 7.0 7.0 0.00 0.00 0.00 53 1016.6
20260507114728 48 223 6.0 6.0 0.00 0.00 0.00 49 1016.6
20260507112727 49 216 6.0 6.0 0.00 0.00 0.00 49 1016.6
20260507110727 49 195 5.0 6.0 0.00 0.00 0.00 44 1016.5
20260507104726 50 158 7.0 8.0 0.00 0.00 0.00 47 1016.4
20260507102727 51 150 6.0 7.0 0.00 0.00 0.00 46 1016.3
20260507100727 48 135 7.0 9.0 0.00 0.00 0.00 48 1016.2